Flag for Lesotho Weather past 2 weeks in Maseru, Lesotho

Now
36 °F

Chilly.


Feels Like: 33 °F
Forecast: 28 / 64 °F
Wind: 3 mph from Southwest

Location: Bloemfontein Airport

Current Time: Jul 30, 2014 at 4:07:00 AM

Latest Report: Jul 30, 2014 at 3:00 AM


Visibility: 4 mi

Pressure: 30.48 "Hg

Humidity: 75%

Dew point: 28 °F

Location of MaseruLocation

Historic Weather in Maseru — Graph

°F

Maseru temperature yesterday

Maximum temperature yesterday: 64 °F (at 3:00 PM)
Minimum temperature yesterday: 37 °F (at 7:00 AM)
Average temperature yesterday: 50 °F

Past Weeks' High & Low Weather Summary

 TemperatureHumidityPressure
High75 °F (Jul 24, 3:00 PM)86% (Jul 16, 6:00 AM)30.63 "Hg (Jul 16, 6:00 AM)
Low21 °F (Jul 15, 7:00 AM)10% (Jul 21, 5:00 PM)29.98 "Hg (Jul 25, 3:00 PM)
Average45 °F48%30.31 "Hg
* Reported Jul 15 3:00 AM — Jul 30 3:00 AM, Maseru, Weather by CustomWeather, © 2014

Note: Actual official high and low records may vary slightly from our data, if they occured in-between our weather recording intervals... More about our weather records

Advertising

Maseru weather history for previous 24 hours

 ConditionsComfort  
Time TempWeatherWind HumidityBarometerVisibility
3:00 AM
Jul 30
36 °FChilly.3 mph75%30.48 "Hg4 mi
2:00 AM36 °FChilly.6 mph81%30.48 "Hg4 mi
1:00 AM37 °FChilly.2 mph75%30.48 "Hg4 mi
12:00 AM37 °FChilly.6 mph81%30.48 "Hg4 mi
11:00 PM
Jul 29
37 °FChilly.3 mph70%30.48 "Hg5 mi
10:00 PM41 °FQuite cool.2 mph70%30.48 "Hg5 mi
9:00 PM43 °FQuite cool.3 mph61%30.48 "HgN/A
8:00 PM48 °FClear.No wind54%30.48 "Hg10 mi
7:00 PM50 °FClear.No wind58%30.48 "Hg10 mi
6:00 PM59 °FClear.2 mph45%30.48 "Hg10 mi
5:00 PM63 °FPassing clouds.2 mph34%30.51 "HgN/A
4:00 PM64 °FScattered clouds.6 mph40%30.48 "HgN/A
3:00 PM64 °FScattered clouds.8 mph40%30.48 "HgN/A
2:00 PM63 °FScattered clouds.7 mph39%30.54 "HgN/A
1:00 PM63 °FPassing clouds.13 mph42%30.54 "HgN/A
12:00 PM59 °FScattered clouds.12 mph45%30.57 "HgN/A
11:00 AM55 °FScattered clouds.14 mph47%30.60 "HgN/A
10:00 AM52 °FSunny.16 mph50%30.60 "Hg10 mi
9:48 AM52 °FSunny.17 mph50%30.60 "Hg10 mi
9:00 AM46 °FPassing clouds.7 mph62%30.63 "HgN/A
8:00 AM39 °FPassing clouds.3 mph75%30.60 "HgN/A
7:00 AM37 °FSunny.3 mph75%30.60 "Hg10 mi
6:00 AM41 °FSunny.9 mph66%30.57 "Hg10 mi
5:00 AM39 °FClear.2 mph70%30.57 "Hg10 mi
4:00 AM45 °FQuite cool.12 mph61%30.54 "HgN/A
Weather by CustomWeather, © 2014

See weather overviewHow to use our weather pages